User: anonymous   Login
Location: Caltech
(34.1382°N, 118.1253°W)
Time: 13:37:38
(UTC-07:00)
Language:

Cosmos 1758 Rocket - Orbit

View from above orbital plane
View from above orbital plane
View from above satellite
View from above satellite

Ground track
Ground track

The orbit data is extracted from the following two-line orbital elements,

1 16792U 86046B   16274.92916822 +.00000167 +00000-0 +17396-4 0  9992
2 16792 082.4801 086.3470 0025683 068.1924 092.3378 14.83091308615362
Epoch (UTC): 30 September 2016 22:18:00
Eccentricity: 0.0025683
inclination: 82.4801°
perigee height: 601 km
apogee height: 637 km
right ascension of ascending node: 86.3470°
argument of perigee: 68.1924°
revolutions per day: 14.83091308
mean anomaly at epoch: 92.3378°
orbit number at epoch: 61536

The dashed part of the orbit path shows where the satellite is in the earth's shadow,  

DLR